This is the latest recevied weather packets stored in our database for station/object K5NAN. If no packets are shown the sender has not sent any weather packets the latest 10 day(s).
| Time | Temp. | Humidity | Pressure | Rain* | Wind** | Luminosity | Snow |
|---|---|---|---|---|---|---|---|
| 1777916417 | 23.89° C | 50% | 1010.5 hPa | 0 mm | - | 718 W/m² | - |
| 1777916113 | 23.33° C | 50% | 1011 hPa | 0 mm | - | 815 W/m² | - |
| 1777915811 | 23.89° C | 51% | 1011 hPa | 0 mm | - | 806 W/m² | - |
| 1777915507 | 23.33° C | 51% | 1010.8 hPa | 0 mm | - | 722 W/m² | - |
| 1777915203 | 23.33° C | 51% | 1011 hPa | 0 mm | - | 559 W/m² | - |
| 1777914900 | 23.33° C | 51% | 1011.2 hPa | 0 mm | - | 609 W/m² | - |
| 1777914597 | 23.33° C | 50% | 1011.3 hPa | 0 mm | - | 667 W/m² | - |
| 1777914293 | 23.33° C | 50% | 1011.4 hPa | 0 mm | - | 844 W/m² | - |
| 1777913990 | 22.78° C | 50% | 1011.5 hPa | 0 mm | - | 647 W/m² | - |
| 1777913686 | 23.33° C | 50% | 1011.6 hPa | 0 mm | - | 708 W/m² | - |
| 1777913384 | 22.78° C | 52% | 1011.5 hPa | 0 mm | - | 767 W/m² | - |
| 1777913080 | 22.78° C | 51% | 1011.5 hPa | 0 mm | - | 720 W/m² | - |
| 1777912777 | 22.22° C | 50% | 1011.6 hPa | 0 mm | - | 639 W/m² | - |
| 1777912472 | 22.22° C | 49% | 1011.7 hPa | 0 mm | - | 575 W/m² | - |
| 1777912169 | 22.22° C | 50% | 1011.7 hPa | 0 mm | - | 719 W/m² | - |
| 1777911865 | 22.22° C | 50% | 1011.3 hPa | 0 mm | - | 589 W/m² | - |
| 1777911562 | 21.67° C | 51% | 1011.6 hPa | 0 mm | - | 656 W/m² | - |
| 1777911258 | 21.67° C | 50% | 1011.9 hPa | 0 mm | - | 566 W/m² | - |
| 1777910955 | 21.67° C | 49% | 1012 hPa | 0 mm | - | 617 W/m² | - |
| 1777910653 | 21.67° C | 51% | 1011.7 hPa | 0 mm | - | 684 W/m² | - |
| 1777910349 | 21.67° C | 52% | 1011.8 hPa | 0 mm | - | 653 W/m² | - |
| 1777910046 | 21.67° C | 53% | 1012 hPa | 0 mm | - | 583 W/m² | - |
| 1777909744 | 21.67° C | 54% | 1011.9 hPa | 0 mm | - | 585 W/m² | - |
| 1777909440 | 21.11° C | 54% | 1012 hPa | 0 mm | - | 585 W/m² | - |
| 1777909138 | 21.67° C | 55% | 1012.2 hPa | 0 mm | - | 431 W/m² | - |
* Rain latest hour (hover to see other rain measurements)
** Current wind speed in m/s (hover to see current wind gust speed)